Погода в Травниках

Россия / Челябинская область     54°54′31″N   60°33′43″E
темп.,
°C
ветер,
м/с
пор.,
м/с
влажн.,
%
обл.,
%
осадки,
мм/ч
давл.,
гПа
погр.,
м
24 мая, вт
вт2423:00+7ю41198100 0.1 1003279
02:00+8ююз39955 0.0 1004230
05:00+6ююз379616 0.0 1006129
08:00+11ю468672 0.0 1006460
11:00+9ю3798100 1.0 1007278
14:00+13ю2797100 1.4 1007376
17:00+14юз1290100 3.8 1008199
20:00+13сз1195100 0.8 100816
25 мая, ср
ср2523:00+12св4998100 4.2 1007268
02:00+11с1299100 2.5 100754
05:00+10в1199100 2.5 100712
08:00+15юв4987100 0.0 1006286
11:00+18ю61171100 0.1 10071033
14:00+19ююв41164100 0.2 1006960
17:00+20ююв71562100 0.4 10062341
20:00+15ю488599 0.3 1007214
26 мая, чт
чт2623:00+10зсз4793100 1.2 1008166
02:00+9зсз2490100 0.9 1010133
05:00+8з2289100 0.9 101146
08:00+9сз4887100 0.0 1012576
11:00+10ссз6770100 0.1 1012951
14:00+13с5751100 0.0 10121445
17:00+12ссз4759100 0.1 10121370
20:00+10сз51064100 0.0 1012373
27 мая, пт
пт2723:00+7сз5127291 0.0 1013377
02:00+5зсз397936 0.0 1014209
05:00+4з35835 0.0 101492
08:00+9зсз47660 0.0 1015665
11:00+13зсз45509 0.0 10141742
14:00+14з4548100 0.0 10141907
17:00+14зюз245799 0.0 10141766
20:00+12ююз2473100 0.0 101470
28 мая, сб
сб2823:00+8ююв3481100 0.0 101463
02:00+7ююз368757 0.0 1014106
05:00+6ююз348694 0.0 101463
08:00+9ююз388472 0.0 1014259
11:00+16ююз566510 0.1 10141103
14:00+17ююз456073 0.6 10141519
17:00+18ююз2358100 1.0 1014772
20:00+16ююз227170 0.1 101527